Weather in Alekseyevka

Russia / Kursk Oblast     51°44′00″N   37°52′40″E
temp.,
°C
wind,
m/s
gust,
m/s
humid.,
%
clouds,
%
prec.,
mm/h
press.,
hPa
HPBL,
m
28 september, tue
tue2800:00+9n4885100 0.2 1021447
03:00+8n4793100 0.2 1021355
06:00+8n479278 0.1 1022395
09:00+8ne4888100 0.4 1023561
12:00+10ne667286 0.2 1025988
15:00+8ne5675100 0.4 1026854
18:00+7ne5783100 0.1 1028942
21:00+7ene5880100 0.1 1030737
29 september, wed
wed2900:00+6ne488090 0.0 1031563
03:00+6ne478395 0.0 1032484
06:00+4ne48865 0.0 1033232
09:00+6ne47695 0.0 1033438
12:00+10ne56505 0.0 10331138
15:00+11ne45445 0.0 10321274
18:00+8nne36560 0.0 1032115
21:00+6ne356416 0.0 1033107
30 september, thu
thu3000:00+5ne22685 0.0 103430
03:00+4nne22725 0.0 103419
06:00+3n33785 0.0 103436
09:00+7nne34653 0.0 1035277
12:00+11ne33525 0.0 10341064
15:00+12ne335011 0.0 10331299
18:00+9ne33645 0.0 103335
21:00+7ne33725 0.0 103449
1 october, fri
fri100:00+6ene22745 0.0 103525
03:00+6ene227515 0.0 103517
06:00+5ene22785 0.0 103615
09:00+9ene22645 0.0 1036226
12:00+12e33515 0.0 10361025
15:00+14e23485 0.0 10351161
18:00+11e22595 0.0 103520
21:00+9se226554 0.0 103512
2 october, sat
sat200:00+8ese116863 0.0 103510
03:00+9ene1167100 0.0 103510
06:00+9ene1169100 0.0 103514
09:00+11ene226473 0.0 1035256
12:00+12e2361100 0.0 1034450
15:00+13e235899 0.0 1033759
18:00+11e2467100 0.0 1033139
21:00+10e247368 0.0 103395